Lid_Strength_Index
8 12 14 11 9 9 9 11 11 10 8 9 9 10 9 8 9 9 9 8 6 4 3 2 2 1 1 1 1 1 1 1 0 0 1 1 1 0 -0 -1 -1 -1 -1 -1
10 11 8 7 8 10 10 11 12 10 9 10 9 10 9 8 8 8 7 7 7 6 3 3 2 2 2 1 1 1 1 0 0 0 0 0 0 -0 -0 -1 -1 -1 -1 -1
11 9 9 9 10 11 10 11 11 12 12 11 12 11 10 9 9 9 8 7 6 6 5 3 3 2 2 2 1 1 1 0 0 0 -0 0 -0 -0 0 0 -0 -1 -1 -1
9 9 10 10 11 9 13 10 11 13 12 14 12 15 10 9 9 9 10 9 9 9 8 6 3 3 2 2 1 1 1 0 0 -0 1 1 2 2 1 1 -0 -0 -1 -1
11 10 11 11 11 9 10 10 11 11 12 13 12 14 11 11 11 9 9 9 8 8 9 9 7 5 2 2 1 1 1 1 0 0 0 1 1 1 1 0 0 0 -1 -1
10 9 8 9 9 9 10 11 11 12 12 17 13 13 13 11 10 8 8 7 8 9 9 9 8 7 6 3 1 1 1 1 1 0 0 1 1 1 1 1 1 1 0 -0
13 11 11 9 11 10 10 12 18 19 18 18 14 14 13 10 10 10 9 8 7 7 8 8 9 10 9 8 5 1 1 2 1 1 1 1 1 1 1 1 1 1 1 1
15 17 14 12 10 12 12 12 16 21 20 16 17 16 12 10 9 9 9 8 8 8 8 9 9 9 8 8 8 6 3 2 1 1 1 1 1 1 1 1 1 1 1 0
14 15 13 11 11 10 12 15 11 15 19 17 15 14 11 10 10 10 10 9 8 8 8 8 8 9 9 8 8 8 7 3 1 1 1 1 1 1 1 1 0 0 1 1
12 16 14 13 11 11 10 9 15 13 20 20 15 16 14 12 11 9 9 8 8 8 8 8 7 7 8 8 8 7 7 7 2 1 1 1 1 1 1 0 1 1 3 4
11 12 16 13 13 13 12 12 12 12 13 17 18 14 10 10 9 10 9 9 9 8 8 7 7 7 7 7 7 6 6 7 7 4 1 1 2 1 1 2 2 3 4 5
11 13 16 14 12 11 10 11 11 15 16 14 14 14 11 10 10 10 10 9 9 8 8 7 7 7 7 7 6 6 6 7 7 6 5 4 2 4 4 4 5 6 7 8
11 13 16 15 13 12 13 12 10 10 12 15 16 14 8 8 8 8 9 8 8 8 7 7 7 7 7 7 6 6 6 7 7 7 6 5 4 4 5 7 7 8 9 10
9 12 13 15 14 12 14 13 12 11 14 14 14 12 10 9 9 8 8 9 8 8 8 7 8 7 7 7 7 7 7 7 7 7 7 7 6 5 5 6 8 9 10 11
9 13 13 13 12 12 12 12 12 13 12 14 12 12 11 9 8 8 7 8 8 9 8 8 8 7 7 7 7 7 7 8 7 8 8 8 8 8 8 9 9 11 11 11
10 13 12 15 13 13 13 12 12 12 11 11 11 12 8 7 8 8 8 7 8 8 7 7 8 7 7 8 8 8 7 8 9 8 9 11 11 11 11 11 12 12 13 13
11 13 14 15 13 12 15 13 12 12 11 11 13 10 8 9 9 8 8 7 7 7 7 8 8 7 7 7 7 8 8 8 9 9 11 12 12 12 12 12 13 13 14 13
11 13 14 16 14 19 12 9 10 11 10 10 10 9 8 8 7 6 6 7 7 7 7 8 7 7 7 7 7 7 8 9 10 10 11 12 12 12 13 13 13 14 14 14
10 11 14 16 16 13 12 12 11 12 12 9 9 9 8 8 9 9 8 7 7 7 6 6 6 7 7 7 7 8 9 9 10 11 12 13 13 14 14 13 14 15 14 14
12 10 12 15 16 18 13 9 9 9 14 8 8 8 8 9 11 9 7 8 8 7 7 7 7 7 7 7 8 9 9 10 10 10 10 11 11 12 12 13 13 14 14 14
14 13 14 14 15 14 11 11 9 14 12 9 9 8 8 10 8 9 8 8 9 9 9 8 8 8 8 9 10 10 10 10 10 11 12 12 12 12 12 12 13 14 14 14
14 14 15 14 15 17 11 11 12 9 8 9 9 9 9 9 9 9 9 9 10 10 10 10 10 10 10 10 11 11 11 11 12 12 13 13 13 13 14 14 14 14 15 15
14 11 13 12 13 11 10 8 8 8 8 9 8 8 9 9 10 9 9 10 10 11 12 12 12 12 12 12 11 11 12 13 13 13 14 14 14 14 14 14 15 15 14 14
13 12 12 12 11 11 10 10 9 9 9 9 9 8 9 9 10 10 11 11 12 12 13 13 13 13 13 13 13 12 13 12 13 13 13 13 14 14 14 14 14 14 14 15
11 12 14 13 13 11 10 9 9 10 10 10 10 10 9 9 11 11 12 12 12 13 13 13 13 13 13 13 13 13 13 13 13 13 14 14 14 14 14 14 14 14 14 14
12 12 12 12 10 9 9 8 9 10 10 10 11 11 12 11 11 12 13 14 14 14 14 13 14 14 14 14 14 13 13 13 13 14 14 14 14 14 14 15 16 15 14 14